User: anonymous   Login
Location: Glendale
(37.4556°N, 88.6714°W)
Time: 09:39:15
(UTC+00:00)
Language:

Cosmos 2237 Rocket - Orbit

View from above orbital plane
View from above orbital plane
View from above satellite
View from above satellite

Ground track
Ground track

The orbit data is extracted from the following two-line orbital elements,

1 22566U 93016B   20055.50936963 -.00000309 +00000-0 -13491-3 0  9998
2 22566 071.0079 164.9333 0007976 075.9886 284.2123 14.14963074390214
Epoch (UTC): 24 February 2020 12:13:29
Eccentricity: 0.0007976
inclination: 71.0079°
perigee height: 836 km
apogee height: 848 km
right ascension of ascending node: 164.9333°
argument of perigee: 75.9886°
revolutions per day: 14.14963074
mean anomaly at epoch: 284.2123°
orbit number at epoch: 39021

The dashed part of the orbit path shows where the satellite is in the earth's shadow,  

DLR